Tracking 19176 objects as of 26-May-2018
HD Live streaming from Space Station
objects crossing your sky now

INS-1A

Track INS-1A now!
10-day predictions


NORAD ID: 41949
Int'l Code: 2017-008B
Perigee: 496.5 km
Apogee: 512.1 km
Inclination: 97.4 °
Period: 94.6 minutes
Semi major axis: 6875 km
RCS: Unknown
Launch date: February 15, 2017
Source: India (IND)
Launch site: SRIHARIKOTA (SRI)
aabbcc
Your satellite tracking list
Your tracking list is empty




NASA's NSSDC Master Catalog

Two Line Element Set (TLE):
1 41949U 17008B   18146.14261091  .00001150  00000-0  52074-4 0  9996
2 41949  97.4480 210.2581 0011329  72.9708 287.2769 15.22871661 70691
Source of the keplerian elements: AFSPC